Location: Leiter
(44.7178°N, 106.2687°W)
Time: 14:03:36
(UTC+00:00)

STARS - Pass Details

Date: 11 July 2022
Orbit: 620 x 637 km, 98.2° (Epoch: 18 August)

Event Time Altitude Azimuth Distance (km) Brightness Sun altitude
Rises 06:30:31 0° 5° (N) 2,923 ? -22.6°
Reaches altitude 10° 06:32:50 10° 358° (N) 2,009 ? -22.6°
Maximum altitude 06:36:51 37° 291° (WNW) 976 ? -22.7°
Enters shadow 06:38:16 29° 251° (WSW) 1,157 ? -22.8°
